This demonstration page uses our WeatherBlox Daily Observations layout. Learn more.

41.55636, -103.73856

Hourly Observations for May 24, 2015

Temp ( °F °C ) Dew Point ( °F °C ) Humidity (%) Winds ( mph kmh ) Pressure ( in mb ) Visibility ( mi km ) Precip ( " mm )
12:53 am 00:53 Cloudy with Light Rain 54 12 52 11 94 94 S 5 7 29.85 1011 6 9.656064 0.03 0.762
1:14 am 01:14 Cloudy with Light Rain 52 11 52 11 100 100 ESE 10 17 29.88 1012 7 11.265408 0.02 0.508
1:17 am 01:17 Cloudy with Light Rain 52 11 52 11 100 100 SE 9 15 29.88 1012 7 11.265408 0.02 0.508
1:53 am 01:53 Cloudy with Light Rain 52 11 50 10 94 94 SE 9 15 29.88 1012 10 16.09344 0.03 0.762
2:01 am 02:01 Cloudy with Light Rain 52 11 50 10 94 94 SSE 7 11 29.88 1012 9 14.484096 0.001 0.001
2:25 am 02:25 Cloudy with Light Rain 52 11 50 10 94 94 Calm 29.88 1012 8 12.874752 0.02 0.508
2:32 am 02:32 Cloudy with Light Rain 52 11 50 10 94 94 S 3 6 29.88 1012 10 16.09344 0 0
2:37 am 02:37 Cloudy 52 11 50 10 94 94 SE 5 7 29.88 1012 10 16.09344 0.02 0.508
2:53 am 02:53 Cloudy 52 11 50 10 94 94 SE 6 9 29.88 1012 10 16.09344 0.02 0.508
3:09 am 03:09 Cloudy 52 11 50 10 94 94 SE 6 9 29.88 1012 10 16.09344 0 0
3:41 am 03:41 Cloudy 52 11 52 11 100 100 SE 5 7 29.88 1012 9 14.484096 0 0
3:53 am 03:53 Cloudy 52 11 52 11 100 100 Calm 29.88 1012 8 12.874752 0 0
4:51 am 04:51 Cloudy 52 11 52 11 100 100 SE 3 6 29.83 1010 8 12.874752 0 0
4:53 am 04:53 Cloudy 52 11 52 11 100 100 SE 3 6 29.83 1010 8 12.874752 0 0
5:50 am 05:50 Cloudy with Mist and Fog 52 11 52 11 100 100 ESE 5 7 29.88 1012 4 6.437376 0 0
5:53 am 05:53 Cloudy with Mist and Fog 52 11 52 11 100 100 ESE 5 7 29.88 1012 4 6.437376 0 0
6:09 am 06:09 Cloudy with Mist and Fog 52 11 52 11 100 100 undefined N/A 29.88 1012 6 9.656064 0 0
6:42 am 06:42 Mostly Cloudy with Mist and Fog 52 11 52 11 100 100 SE 3 6 29.88 1012 6 9.656064 0 0
6:53 am 06:53 Cloudy 52 11 52 11 100 100 SSE 3 6 29.88 1012 8 12.874752 0 0
7:08 am 07:08 Mostly Cloudy 52 11 52 11 100 100 Calm 29.83 1010 10 16.09344 0 0
7:20 am 07:20 Mostly Cloudy 54 12 52 11 94 94 Calm 29.83 1010 10 16.09344 0 0
7:27 am 07:27 Mostly Cloudy 52 11 52 11 100 100 SSE 3 6 29.83 1010 10 16.09344 0 0
7:53 am 07:53 Cloudy 54 12 52 11 94 94 Calm 29.83 1010 10 16.09344 0 0
8:43 am 08:43 Mostly Cloudy 55 13 50 10 82 82 SSW 3 6 29.8 1009 10 16.09344 0 0
8:53 am 08:53 Mostly Cloudy 55 13 50 10 82 82 Calm 29.8 1009 10 16.09344 0 0
9:53 am 09:53 Mostly Cloudy 57 14 48 9 72 72 N 3 6 29.8 1009 10 16.09344 0 0
10:53 am 10:53 Mostly Cloudy 61 16 52 11 72 72 E 6 9 29.77 1008 10 16.09344 0 0
11:27 am 11:27 Mostly Cloudy 61 16 50 10 68 68 ESE 7 11 29.77 1008 10 16.09344 0 0
11:53 am 11:53 Mostly Cloudy 63 17 52 11 68 68 ESE 7 11 29.74 1007 10 16.09344 0 0
12:34 pm 12:34 Mostly Cloudy 63 17 50 10 64 64 ESE 8 13 29.71 1006 10 16.09344 0 0
12:53 pm 12:53 Partly Cloudy 64 18 50 10 60 60 ENE 7 11 29.71 1006 10 16.09344 0 0
1:53 pm 13:53 Sunny 66 19 48 9 52 52 undefined N/A 29.65 1004 10 16.09344 0 0
2:53 pm 14:53 Partly Cloudy 68 20 48 9 49 49 SE 8 13 29.62 1003 10 16.09344 0 0
3:53 pm 15:53 Sunny 68 20 46 8 46 46 N 3 6 29.62 1003 10 16.09344 0 0
4:53 pm 16:53 Sunny 66 19 46 8 49 49 SSE 9 15 29.59 1002 10 16.09344 0 0
5:53 pm 17:53 Sunny 64 18 46 8 52 52 SSE 7 11 29.59 1002 10 16.09344 0 0
6:26 pm 18:26 Mostly Cloudy with Nearby Thunderstorms 61 16 46 8 59 59 W 20 31 29.65 1004 10 16.09344 0 0
6:43 pm 18:43 Partly Cloudy with Nearby Thunderstorms 55 13 45 7 67 67 W 14 22 29.71 1006 10 16.09344 0 0
6:53 pm 18:53 Partly Cloudy 55 13 45 7 67 67 W 13 20 29.71 1006 10 16.09344 0 0
7:53 pm 19:53 Mostly Sunny 55 13 46 8 72 72 WNW 12 19 29.71 1006 10 16.09344 0.001 0.001
8:53 pm 20:53 Mostly Cloudy 54 12 48 9 82 82 W 7 11 29.77 1008 10 16.09344 0 0
9:17 pm 21:17 Cloudy 54 12 50 10 88 88 Calm 29.77 1008 10 16.09344 0 0
9:40 pm 21:40 Cloudy 55 13 48 9 77 77 NE 12 19 29.74 1007 10 16.09344 0 0
9:53 pm 21:53 Cloudy with Light Rain 54 12 50 10 88 88 NE 8 13 29.77 1008 8 12.874752 0.01 0.254
10:53 pm 22:53 Cloudy 54 12 50 10 88 88 S 6 9 29.8 1009 10 16.09344 0.07 1.778
11:12 pm 23:12 Cloudy 54 12 50 10 88 88 N 6 9 29.8 1009 10 16.09344 0 0
11:53 pm 23:53 Cloudy 54 12 50 10 88 88 ENE 10 17 29.8 1009 10 16.09344 0 0

Powered by AerisWeather